Amateur Radio Satellites - All Passes

Search period start: 22 May 2013 14:49
Search period end: 23 May 2013 14:49
Location: London, 42.9830°N, 81.2500°W

Satellite Date Start Highest point End Downlink Frequencies (MHz)
Time Altitude Azimuth
Oscar 16 22 May 14:50:56 14:55:56 47° 261° (W) 15:00:58 437.025 USB, Beacon 2401.1428
AO-27 22 May 14:58:57 15:04:00 54° 260° (W) 15:09:05 436.795 MHz FM
TMSAT-1 22 May 15:02:03 15:05:04 16° 59° (ENE) 15:08:05 436.925 FM
ITAMSAT 1 22 May 15:05:48 15:10:46 47° 261° (W) 15:15:48 435.822 SSB
PCSat 22 May 15:08:57 15:10:52 12° 32° (NNE) 15:12:48 145.825 MHz
AO-7 22 May 15:19:43 15:25:01 19° 48° (NE) 15:30:19 29.400 - 29.500 MHz
Gurwin Techsat 1B 22 May 15:21:36 15:26:17 33° 67° (ENE) 15:30:58 435.225 FM
RS-15 22 May 15:24:34 15:32:31 21° 99° (E) 15:40:16 29.354 - 29.394 USB, Beacon 29.352 USB
Saudisat 1A 22 May 15:25:00 15:29:34 80° 238° (WSW) 15:34:01 436.775 MHz
Sapphire 22 May 15:40:53 15:44:27 17° 39° (NE) 15:48:01 437.095 MHz 1200 baud AX-25 AFSK
Uribyol 2 22 May 15:48:37 15:52:17 20° 268° (W) 15:56:00 436.500 FM
Uosat F 22 May 15:49:34 15:54:32 71° 73° (ENE) 15:59:32 435.120 FM
Oscar 19 22 May 15:53:15 15:56:22 16° 270° (W) 15:59:30 437.125 CW, 437.150 USB
AO-Echo 22 May 15:57:42 16:02:19 43° 261° (W) 16:06:51 ?
TMSAT-1 22 May 16:39:03 16:44:21 78° 257° (WSW) 16:49:40 436.925 FM
SO-50 22 May 16:50:10 16:53:27 19° 39° (NE) 16:56:41 436.795 FM
PCSat 22 May 16:50:20 16:55:38 51° 54° (NE) 17:00:55 145.825 MHz
Gurwin Techsat 1B 22 May 17:01:26 17:06:12 34° 264° (W) 17:11:01 435.225 FM
AO-7 22 May 17:08:13 17:16:28 75° 68° (ENE) 17:24:47 29.400 - 29.500 MHz
Sapphire 22 May 17:23:14 17:28:43 86° 60° (ENE) 17:34:08 437.095 MHz 1200 baud AX-25 AFSK
RS-15 22 May 17:31:08 17:43:12 81° 120° (ESE) 17:54:45 29.354 - 29.394 USB, Beacon 29.352 USB
Uosat F 22 May 17:31:22 17:33:52 14° 270° (W) 17:36:22 435.120 FM
SO-50 22 May 18:30:01 18:34:33 69° 239° (WSW) 18:39:00 436.795 FM
PCSat 22 May 18:34:26 18:38:44 24° 252° (WSW) 18:43:01 145.825 MHz
JAS-1B 22 May 18:38:26 18:45:03 25° 59° (ENE) 18:50:57 435.800 - 435.900 CW/SSB
STRAND 1 22 May 18:50:17 18:53:59 20° 92° (E) 18:57:40 ?
AO-7 22 May 19:03:36 19:10:00 24° 267° (W) 19:16:28 29.400 - 29.500 MHz
Hamsat 22 May 19:08:52 19:12:47 39° 71° (ENE) 19:16:45 145.90 MHz
Sapphire 22 May 19:08:54 19:11:21 13° 257° (WSW) 19:13:48 437.095 MHz 1200 baud AX-25 AFSK
RS-15 22 May 19:46:04 19:56:53 39° 326° (NW) 20:07:19 29.354 - 29.394 USB, Beacon 29.352 USB
UOSAT-12 22 May 19:52:33 19:56:20 25° 43° (NE) 20:00:07 437.025 FM, 437.400 FM
SO-67 22 May 19:55:59 19:59:20 40° 73° (ENE) 20:02:43 435.3500 MHz FM
JAS-1B 22 May 20:25:38 20:34:57 84° 255° (WSW) 20:42:53 435.800 - 435.900 CW/SSB
STRAND 1 22 May 20:28:29 20:33:29 53° 289° (WNW) 20:38:28 ?
Hamsat 22 May 20:46:07 20:49:03 18° 268° (W) 20:52:00 145.90 MHz
Oscar 11 22 May 21:08:32 21:10:46 14° 62° (ENE) 21:12:59 145.825 FM, Beacon 2401.500 USB
HO-68 22 May 21:10:24 21:17:04 45° 64° (ENE) 21:23:46 435.675 MHz FM
AO-40 22 May 21:14:21 03:30:47 45° 178° (S) 09:32:28 Beacon 2401.320
OPAL 22 May 21:17:05 21:19:39 14° 56° (NE) 21:22:14 ?
JAS-2 22 May 21:29:12 21:36:25 44° 66° (ENE) 21:43:42 435.800 - 435.900 CW/SSB, 435.910 FM
SO-67 22 May 21:31:21 21:33:00 13° 269° (W) 21:34:40 435.3500 MHz FM
UOSAT-12 22 May 21:32:19 21:36:45 49° 242° (WSW) 21:41:11 437.025 FM, 437.400 FM
RS-15 22 May 22:04:57 22:13:44 24° 360° (N) 22:22:14 29.354 - 29.394 USB, Beacon 29.352 USB
KITSAT 1 22 May 22:09:10 22:13:59 17° 100° (E) 22:18:48 435.175 FM
JAS-1B 22 May 22:20:26 22:26:11 18° 271° (W) 22:31:30 435.800 - 435.900 CW/SSB
Oscar 11 22 May 22:42:14 22:46:30 61° 259° (W) 22:50:48 145.825 FM, Beacon 2401.500 USB
OPAL 22 May 22:52:38 22:57:50 88° 253° (WSW) 23:03:02 ?
HO-68 22 May 22:58:21 23:04:50 37° 263° (W) 23:11:22 435.675 MHz FM
JAS-2 22 May 23:14:04 23:21:20 44° 264° (W) 23:28:46 435.800 - 435.900 CW/SSB, 435.910 FM
KITSAT 1 23 May 00:00:06 00:08:10 84° 120° (ESE) 00:16:18 435.175 FM
RS-15 23 May 00:20:13 00:30:31 38° 34° (NE) 00:40:28 29.354 - 29.394 USB, Beacon 29.352 USB
OPAL 23 May 00:36:07 00:37:24 11° 270° (W) 00:38:42 ?
MaSat-1 23 May 01:52:19 01:58:46 39° 109° (ESE) 02:04:14 437.345 MHz
KITSAT 1 23 May 01:57:42 02:04:32 29° 322° (NW) 02:11:25 435.175 FM
Uribyol 2 23 May 02:20:23 02:23:56 18° 91° (E) 02:27:27 436.500 FM
Oscar 19 23 May 02:23:03 02:27:00 22° 93° (E) 02:30:55 437.125 CW, 437.150 USB
RS-15 23 May 02:32:55 02:44:02 78° 241° (WSW) 02:54:52 29.354 - 29.394 USB, Beacon 29.352 USB
Oscar 16 23 May 03:01:38 03:06:46 58° 101° (E) 03:11:50 437.025 USB, Beacon 2401.1428
AO-27 23 May 03:11:00 03:16:07 52° 100° (E) 03:21:12 436.795 MHz FM
ITAMSAT 1 23 May 03:17:35 03:22:45 58° 101° (E) 03:27:53 435.822 SSB
ISS 23 May 03:18:58 03:22:08 44° 140° (SE) 03:25:19 145.800 FM
MaSat-1 23 May 03:34:28 03:40:56 42° 302° (WNW) 03:46:16 437.345 MHz
Gurwin Techsat 1B 23 May 03:39:00 03:40:42 11° 87° (E) 03:42:24 435.225 FM
Uosat F 23 May 03:57:21 04:01:04 21° 93° (E) 04:04:46 435.120 FM
Uribyol 2 23 May 03:58:39 04:03:48 59° 288° (WNW) 04:08:56 436.500 FM
KITSAT 1 23 May 03:59:23 04:03:13 14° 351° (N) 04:07:04 435.175 FM
Oscar 19 23 May 04:01:39 04:06:36 48° 290° (WNW) 04:11:31 437.125 CW, 437.150 USB
AO-Echo 23 May 04:03:33 04:08:13 55° 100° (E) 04:12:58 ?
Oscar 16 23 May 04:42:03 04:45:41 20° 298° (WNW) 04:49:17 437.025 USB, Beacon 2401.1428
RS-15 23 May 04:47:53 04:54:22 18° 262° (W) 05:00:50 29.354 - 29.394 USB, Beacon 29.352 USB
AO-27 23 May 04:51:20 04:55:17 22° 297° (WNW) 04:59:13 436.795 MHz FM
TMSAT-1 23 May 04:54:15 04:59:14 40° 98° (E) 05:04:12 436.925 FM
ISS 23 May 04:55:53 04:58:56 32° 338° (NNW) 05:01:59 145.800 FM
ITAMSAT 1 23 May 04:58:06 05:01:49 20° 298° (WNW) 05:05:31 435.822 SSB
AO-7 23 May 05:09:53 05:16:09 23° 92° (E) 05:22:23 29.400 - 29.500 MHz
Gurwin Techsat 1B 23 May 05:16:03 05:21:24 89° 285° (WNW) 05:26:43 435.225 FM
Saudisat 1A 23 May 05:33:57 05:37:29 23° 112° (ESE) 05:41:04 436.775 MHz
Uosat F 23 May 05:35:18 05:40:08 49° 290° (WNW) 05:44:58 435.120 FM
AO-Echo 23 May 05:43:29 05:46:38 18° 297° (WNW) 05:49:49 ?
KITSAT 1 23 May 05:57:27 06:02:40 18° 23° (NNE) 06:07:52 435.175 FM
STRAND 1 23 May 06:07:04 06:11:31 32° 66° (ENE) 06:16:00 ?
ISS 23 May 06:33:57 06:36:22 18° 358° (N) 06:38:48 145.800 FM
TMSAT-1 23 May 06:34:32 06:39:00 28° 295° (WNW) 06:43:28 436.925 FM
Gurwin Techsat 1B 23 May 06:58:09 07:00:36 13° 302° (WNW) 07:03:03 435.225 FM
AO-7 23 May 07:01:23 07:09:46 80° 291° (WNW) 07:18:07 29.400 - 29.500 MHz
Saudisat 1A 23 May 07:12:30 07:16:55 46° 310° (NW) 07:21:22 436.775 MHz
PCSat 23 May 07:33:20 07:38:17 38° 111° (ESE) 07:43:16 145.825 MHz
STRAND 1 23 May 07:46:07 07:50:40 33° 264° (W) 07:55:15 ?
KITSAT 1 23 May 07:52:28 08:00:20 49° 49° (NE) 08:08:09 435.175 FM
Sapphire 23 May 08:05:49 08:11:10 68° 117° (ESE) 08:16:34 437.095 MHz 1200 baud AX-25 AFSK
ISS 23 May 08:10:55 08:13:52 28° 19° (NNE) 08:16:49 145.800 FM
JAS-1B 23 May 08:12:30 08:16:57 21° 91° (E) 08:21:11 435.800 - 435.900 CW/SSB
Hamsat 23 May 08:30:02 08:34:25 76° 102° (ESE) 08:38:47 145.90 MHz
SO-50 23 May 08:46:21 08:50:36 32° 115° (ESE) 08:54:49 436.795 FM
SO-67 23 May 08:55:07 08:58:36 47° 99° (E) 09:02:03 435.3500 MHz FM
AO-7 23 May 08:55:43 09:01:19 20° 311° (NW) 09:06:55 29.400 - 29.500 MHz
Saudisat 1A 23 May 08:57:07 08:57:47 10° 331° (NNW) 08:58:27 436.775 MHz
PCSat 23 May 09:16:49 09:21:44 35° 310° (NW) 09:26:42 145.825 MHz
ISS 23 May 09:47:28 09:50:48 62° 217° (SW) 09:54:07 145.800 FM
KITSAT 1 23 May 09:48:08 09:55:39 43° 249° (WSW) 10:03:09 435.175 FM
Sapphire 23 May 09:50:55 09:55:07 22° 317° (NW) 09:59:20 437.095 MHz 1200 baud AX-25 AFSK
JAS-1B 23 May 10:02:15 10:08:09 51° 292° (WNW) 10:13:36 435.800 - 435.900 CW/SSB
Hamsat 23 May 10:08:20 10:09:53 12° 299° (WNW) 10:11:26 145.90 MHz
JAS-2 23 May 10:24:02 10:30:02 31° 92° (E) 10:35:24 435.800 - 435.900 CW/SSB, 435.910 FM
HO-68 23 May 10:24:15 10:30:58 41° 98° (E) 10:37:38 435.675 MHz FM
SO-50 23 May 10:26:47 10:31:11 35° 313° (NW) 10:35:32 436.795 FM
Oscar 11 23 May 10:29:54 10:33:21 22° 94° (E) 10:36:47 145.825 FM, Beacon 2401.500 USB
SO-67 23 May 10:30:13 10:31:39 12° 295° (WNW) 10:33:05 435.3500 MHz FM
MaSat-1 23 May 10:38:54 10:39:33 10° 41° (NE) 10:40:11 437.345 MHz
OPAL 23 May 11:02:42 11:06:31 22° 95° (E) 11:10:16 ?
UOSAT-12 23 May 11:44:37 11:48:49 39° 117° (ESE) 11:53:03 437.025 FM, 437.400 FM
Oscar 11 23 May 12:05:41 12:09:39 34° 290° (WNW) 12:13:36 145.825 FM, Beacon 2401.500 USB
JAS-2 23 May 12:08:43 12:15:19 46° 293° (WNW) 12:21:10 435.800 - 435.900 CW/SSB, 435.910 FM
HO-68 23 May 12:12:02 12:18:37 41° 297° (WNW) 12:25:11 435.675 MHz FM
MaSat-1 23 May 12:18:59 12:22:10 46° 249° (WSW) 12:24:48 437.345 MHz
OPAL 23 May 12:40:51 12:45:39 46° 292° (WNW) 12:50:22 ?
Oscar 16 23 May 12:43:45 12:46:07 13° 58° (ENE) 12:48:29 437.025 USB, Beacon 2401.1428
AO-27 23 May 12:54:38 12:56:38 12° 57° (ENE) 12:58:38 436.795 MHz FM
ITAMSAT 1 23 May 13:00:35 13:03:03 14° 58° (ENE) 13:05:32 435.822 SSB
UOSAT-12 23 May 13:25:11 13:29:05 28° 315° (NW) 13:33:02 437.025 FM, 437.400 FM
Uribyol 2 23 May 13:39:01 13:43:29 30° 66° (ENE) 13:47:59 436.500 FM
Oscar 19 23 May 13:40:40 13:45:21 35° 67° (ENE) 13:50:02 437.125 CW, 437.150 USB
Saudisat 1A 23 May 13:59:42 14:03:37 27° 44° (NE) 14:07:28 436.775 MHz
Oscar 16 23 May 14:19:31 14:24:43 90° 260° (W) 14:29:58 437.025 USB, Beacon 2401.1428
AO-27 23 May 14:30:10 14:35:21 84° 75° (ENE) 14:40:34 436.795 MHz FM
ITAMSAT 1 23 May 14:36:39 14:41:49 87° 256° (WSW) 14:47:03 435.822 SSB

Developed and maintained by Chris Peat, Heavens-Above GmbH. Please read the updated FAQ before sending e-mail. Imprint. DLR
